To NAV CANADA Home Page Login to a new session Search on AWWS site Feedback and Comments Disclaimer Vers la page française équivalente Tips FAQ What's new on the site To the Forecasts and Observations / NOTAM section To "File a Flight Plan" website Publications and other links Update of the User's profile FIC Telephone Numbers My Weather Data Folder Route Weather Data Regional Weather Data Local Weather Data To the Forecasts and Observations / NOTAM section
Request Generated 11/26/2015 at 23:06:45 UTC . Weather information available at that time is displayed.



METAR CYMU 262200Z 10012KT 15SM OVC060 M08/M14 A3009 RMK SC8 LASTOBS/NEXT 27 1300Z SLP197=
METAR CYMU 262100Z 08009KT 15SM OVC060 M08/M15 A3009 RMK SC7 SLP196=
METAR CYMU 262000Z 00000KT 15SM FEW025 FEW070 SCT280 M08/M15 A3007 RMK SC1AC0CI0 PRESRR SLP191=

CYMU - No TAF is issued for this station

Your time UTC time
Weather data provided by Environment Canada and NAV CANADA